This is the latest recevied weather packets stored in our database for station/object KL1SF-7. If no packets are shown the sender has not sent any weather packets the latest 10 day(s).
| Time | Temp. | Humidity | Pressure | Rain* | Wind** | Luminosity | Snow |
|---|---|---|---|---|---|---|---|
| 1777872817 | 12.78° C | 26% | 1015 hPa | 0 mm | - | - | - |
| 1777872218 | 12.78° C | 25% | 1015.7 hPa | 0 mm | - | - | - |
| 1777871610 | 13.33° C | 25% | 1015.7 hPa | 0 mm | - | - | - |
| 1777871023 | 13.33° C | 25% | 1015.6 hPa | 0 mm | - | - | - |
| 1777870404 | 13.33° C | 25% | 1015.7 hPa | 0 mm | - | - | - |
| 1777869814 | 13.33° C | 25% | 1015.7 hPa | 0 mm | - | - | - |
| 1777869226 | 12.78° C | 25% | 1015.1 hPa | 0 mm | - | - | - |
| 1777868611 | 12.78° C | 25% | 1015.3 hPa | 0 mm | - | - | - |
| 1777868003 | 13.33° C | 25% | 1015.3 hPa | 0 mm | - | - | - |
| 1777867416 | 13.33° C | 24% | 1014.9 hPa | 0 mm | - | - | - |
| 1777866817 | 13.33° C | 24% | 1014.9 hPa | 0 mm | - | - | - |
| 1777866210 | 13.89° C | 23% | 1014.9 hPa | 0 mm | - | - | - |
| 1777865623 | 13.89° C | 22% | 1014.8 hPa | 0 mm | - | - | - |
| 1777865007 | 13.89° C | 22% | 1014.9 hPa | 0 mm | - | - | - |
| 1777864417 | 14.44° C | 21% | 1014.9 hPa | 0 mm | - | - | - |
| 1777863830 | 14.44° C | 21% | 1014.8 hPa | 0 mm | - | - | - |
| 1777863210 | 15° C | 21% | 1014.6 hPa | 0 mm | - | - | - |
| 1777862606 | 15° C | 20% | 1014.6 hPa | 0 mm | - | - | - |
| 1777862019 | 15.56° C | 20% | 1014.5 hPa | 0 mm | - | - | - |
| 1777861404 | 15.56° C | 20% | 1014 hPa | 0 mm | - | - | - |
| 1777860819 | 16.11° C | 20% | 1014 hPa | 0 mm | - | - | - |
| 1777860212 | 16.11° C | 21% | 1013.7 hPa | 0 mm | - | - | - |
| 1777859613 | 16.11° C | 22% | 1013.9 hPa | 0 mm | - | - | - |
| 1777859005 | 16.67° C | 21% | 1013.9 hPa | 0 mm | - | - | - |
| 1777858418 | 17.22° C | 20% | 1013.9 hPa | 0 mm | - | - | - |
* Rain since midnight (hover to see other rain measurements)
** Current wind speed in m/s (hover to see current wind gust speed)